Regional Weather Roundup
Issued by NWS

Home | Current Version | Previous Version | Graphics & Text | Print | Product List | Glossary Off
Versions: 1 2 3 4 5 6 7 8 9 10 11 12 13 14 15 16 17 18 19 20 21 22 23 24 25 26 27 28 29 30 31 32 33 34 35 36 37 38 39 40 41 42 43 44 45 46 47 48 49 50

000
ASUS43 KMKX 250559
RWRWI

WISCONSIN REGIONAL WEATHER ROUNDUP
NATIONAL WEATHER SERVICE MILWAUKEE/SULLIVAN WI
100 AM CDT THU MAY 25 2017

NOTE: "FAIR" INDICATES FEW OR NO CLOUDS BELOW 12,000 FEET WITH NO
SIGNIFICANT WEATHER AND/OR OBSTRUCTIONS TO VISIBILITY.

WIZ001-002-006>008-014>016-023>028-250700-
NORTHWEST WISCONSIN

CITY           SKY/WX    TMP DP  RH WIND       PRES   REMARKS
SUPERIOR ARPT  NOT AVBL
ASHLAND        CLEAR     37  36  96 CALM      29.76F FOG
6HR MIN TEMP:  36; 6HR MAX TEMP:  49;

HAYWARD        CLEAR     43  41  93 N6        29.73F
6HR MIN TEMP:  42; 6HR MAX TEMP:  58;

SIREN          CLOUDY    54  46  74 CALM      29.73S
CUMBERLAND     CLOUDY    52  45  76 CALM      29.72F
RICE LAKE      CLOUDY    52  47  83 NE3       29.74S
CHETEK         CLOUDY    53  49  85 CALM      29.73S
LADYSMITH      CLOUDY    52  48  87 NE3       29.74F
EAU CLAIRE     NOT AVBL
MENOMONIE      CLOUDY    53  50  91 CALM      29.72S
NEW RICHMOND   PTCLDY    51  46  83 E3        29.72S
OSCEOLA        MOCLDY    54  48  81 E3        29.74F
$$

WIZ003>005-009-010-017-018-250700-
NORTH CENTRAL WISCONSIN

CITY           SKY/WX    TMP DP  RH WIND       PRES   REMARKS
MANITOWISH WTR CLOUDY    49  47  93 CALM      29.74S
ARBOR VITAE    CLOUDY    52  49  90 CALM      29.73F
WOODRUFF       CLOUDY    52  49  90 CALM      29.73F
RHINELANDER    CLEAR     50  47  89 NE3       29.73F
6HR MIN TEMP:  50; 6HR MAX TEMP:  56;

EAGLE RIVER    CLOUDY    50  45  82 NE3       29.73F
LAND O LAKES   PTCLDY    47  45  90 CALM      29.76S
PHILLIPS       CLOUDY    50  48  93 CALM      29.73F
TOMAHAWK       CLOUDY    50  47  88 CALM      29.74S
MEDFORD        CLOUDY    50  47  90 NE5       29.72S
MERRILL        CLOUDY    51  50  95 CALM      29.73S
$$

WIZ029-030-035-036-043>047-250700-
CENTRAL WISCONSIN

CITY           SKY/WX    TMP DP  RH WIND       PRES   REMARKS
WAUSAU         CLEAR     50  48  93 N3        29.70S
6HR MIN TEMP:  50; 6HR MAX TEMP:  55;

MOSINEE        MOCLDY    50  50 100 N6        29.72S
MARSHFIELD     CLEAR     47  45  93 N3        29.70S
6HR MIN TEMP:  47; 6HR MAX TEMP:  54;

STEVENS POINT  CLOUDY    49  49 100 N3        29.71S
WAUPACA        CLOUDY    55  51  87 N7        29.69F
WAUTOMA        CLOUDY    53  50  89 N6        29.68F
6HR MIN TEMP:  52; 6HR MAX TEMP:  54;

WISC RAPIDS    CLOUDY    54  49  83 NE7       29.71F
6HR MIN TEMP:  53; 6HR MAX TEMP:  55;

CAMP DOUGLAS   NOT AVBL
$$

WIZ011>013-019>022-031-037>040-048>050-250700-
NORTHEAST WISCONSIN

CITY           SKY/WX    TMP DP  RH WIND       PRES   REMARKS
ANTIGO         CLEAR     46  46 100 N6        29.72S
SHAWANO        CLOUDY    54  49  84 NE9       29.70S
OCONTO         CLOUDY    51  48  90 N7        29.68F
STURGEON BAY   CLOUDY    50  48  93 N7        29.68F
6HR MIN TEMP:  49; 6HR MAX TEMP:  53;

GREEN BAY      MOCLDY    51  50  96 N8        29.67S
6HR MIN TEMP:  51; 6HR MAX TEMP:  53;

MANITOWOC      NOT AVBL
APPLETON       CLOUDY    50  50 100 N9        29.66S
CLINTONVILLE   CLOUDY    52  48  87 N7        29.69S
OSHKOSH        CLOUDY    53  49  86 N10       29.66F
6HR MIN TEMP:  53; 6HR MAX TEMP:  54;

$$

WIZ032>034-041-042-053>061-250700-
SOUTHWEST WISCONSIN

CITY           SKY/WX    TMP DP  RH WIND       PRES   REMARKS
LA CROSSE      CLEAR     53  50  89 N3        29.70S
6HR MIN TEMP:  53; 6HR MAX TEMP:  60;

SPARTA         MOCLDY    46  46 100 CALM      29.71F
VIROQUA        CLOUDY    52  50  92 W5        29.70S
BOSCOBEL       CLOUDY    52  50  93 CALM      29.69F
6HR MIN TEMP:  47; 6HR MAX TEMP:  59;

PRAIRIE DU CHI CLEAR     49  47  93 CALM      29.69S
PLATTEVILLE    MOCLDY    52  52 100 NE7       29.68S
$$

WIZ056-057-062-063-064-067-068-250700-
SOUTH CENTRAL WISCONSIN

CITY           SKY/WX    TMP DP  RH WIND       PRES   REMARKS
REEDSBURG      CLOUDY    52  52  99 N3        29.69S
BARABOO/DELLS  CLOUDY    52  47  84 N3        29.68F
LONE ROCK      NOT AVBL
MINERAL POINT  CLOUDY    54  52  94 N8        29.67F
MADISON        CLOUDY    53  50  89 N7        29.65S
6HR MIN TEMP:  53; 6HR MAX TEMP:  55;

MIDDLETON      CLOUDY    54  50  88 N8        29.67S
WATERTOWN      CLOUDY    53  52  98 N7        29.63S
MONROE         CLOUDY    52  50  93 N12G17    29.64F
JANESVILLE     CLOUDY    54  52  94 N8        29.62F
$$

WIZ051-052-058>065-066-070>072-250700-
SOUTHEAST WISCONSIN

CITY           SKY/WX    TMP DP  RH WIND       PRES   REMARKS
MILWAUKEE      CLOUDY    55  51  86 N13       29.59S
6HR MIN TEMP:  54; 6HR MAX TEMP:  58;

WAUKESHA       MOCLDY    50  48  93 N7        29.62S
MILWAUKEE/TIMM   N/A     52  46  82 N8        29.61S
RACINE         CLOUDY    52  48  86 N15G24    29.60S
6HR MIN TEMP:  51; 6HR MAX TEMP:  53;

KENOSHA        CLOUDY    54  49  83 N10       29.59R
6HR MIN TEMP:  53; 6HR MAX TEMP:  58;

FOND DU LAC    CLOUDY    54  49  83 NE14      29.66S
6HR MIN TEMP:  54; 6HR MAX TEMP:  54;

SHEBOYGAN      CLOUDY    52  50  93 N12       29.63S
6HR MIN TEMP:  51; 6HR MAX TEMP:  56;

WEST BEND      CLOUDY    52  50  93 N8        29.63S
JUNEAU         CLOUDY    52  50  92 N10G16    29.65S
$$

LSZ147-162-250700-
LAKE SUPERIOR

STATION/POSITION TIME  TEMP    WIND        PRES    WAVE
                       AIR SEA DIR/SP/G            HT/PER
                 (UTC) (F)     (DEG/KT/KT) (MB)    (FT/S)
$$

LMZ867-665-643>646-250700-
LAKE MICHIGAN

STATION/POSITION TIME  TEMP    WIND        PRES    WAVE
                       AIR SEA DIR/SP/G            HT/PER
                 (UTC) (F)     (DEG/KT/KT) (MB)    (FT/S)
$$

TC  - TEMPERATURE IN CELSIUS
VSB - VISIBILITY IN STATUTE MILES
WCI - WIND CHILL INDEX
HX  - HEAT INDEX





USA.gov is the U.S. government's official web portal to all federal, state and local government web resources and services.